Location: Dodge City Co - Operative Exchange Grain Elevator Number 8
(38.1218°N, 99.7124°W)
Time: 08:12:51
(UTC+00:00)

ATLAS 2AS CENTAUR R/B - Pass Details

Date: 03 March 2021
Orbit: 949 x 1263 km, 63.7° (Epoch: 13 April)

Event Time Altitude Azimuth Distance (km) Brightness Sun altitude
Rises 12:21:03 0° 201° (SSW) 4,150 5.6 -9.9°
Reaches altitude 10° 12:23:49 10° 198° (SSW) 3,209 5.0 -9.4°
Maximum altitude 12:31:34 68° 118° (ESE) 1,348 3.5 -7.8°
Drops below altitude 10° 12:39:21 10° 37° (NE) 3,228 5.7 -6.3°
Sets 12:42:08 0° 35° (NE) 4,176 6.3 -5.8°
